Location: Gand�
(15.0971°N, 12.6564°W)
Time: 14:38:30
(UTC+00:00)

H-2A R/B - Pass Details

Date: 07 August 2020
Orbit: 578 x 654 km, 98.5° (Epoch: 20 September)

Event Time Altitude Azimuth Distance (km) Brightness Sun altitude
Exits shadow 05:19:26 31° 282° (WNW) 1,034 2.8 -17.9°
Drops below altitude 10° 05:22:27 10° 325° (NW) 1,907 4.4 -17.2°
Sets 05:24:44 0° 334° (NNW) 2,799 5.4 -16.7°
